| time (UTC) | temp C | wind direction | speed KPH | gust KPH | rain 1hr cm | rain 24hr cm | rain mn cm | humidity % | barometer mb |
| 20260506221643 | 17 | 72 | 1.6 | 11.3 | 0.00 | 0.00 | 0.00 | 45 | 1012.9 |
| 20260506220138 | 18 | 110 | 4.8 | 11.3 | 0.00 | 0.00 | 0.00 | 44 | 1012.9 |
| 20260506214633 | 19 | 142 | 3.2 | 16.1 | 0.00 | 0.00 | 0.00 | 43 | 1012.9 |
| 20260506213132 | 20 | 114 | 4.8 | 16.1 | 0.00 | 0.00 | 0.00 | 40 | 1012.9 |
| 20260506211632 | 21 | 147 | 3.2 | 16.1 | 0.00 | 0.00 | 0.00 | 36 | 1012.4 |
| 20260506210128 | 21 | 214 | 4.8 | 22.5 | 0.00 | 0.00 | 0.00 | 27 | 1012.4 |
| 20260506204624 | 21 | 148 | 3.2 | 12.9 | 0.00 | 0.00 | 0.00 | 27 | 1012.4 |
| 20260506203121 | 21 | 172 | 4.8 | 20.9 | 0.00 | 0.00 | 0.00 | 28 | 1012.4 |
| 20260506201618 | 22 | 147 | 4.8 | 17.7 | 0.00 | 0.00 | 0.00 | 27 | 1012.1 |
| 20260506200114 | 23 | 115 | 3.2 | 17.7 | 0.00 | 0.00 | 0.00 | 28 | 1012.1 |
| 20260506194610 | 22 | 167 | 3.2 | 16.1 | 0.00 | 0.00 | 0.00 | 29 | 1012.1 |
| 20260506193108 | 22 | 178 | 3.2 | 12.9 | 0.00 | 0.00 | 0.00 | 30 | 1012.4 |
| 20260506191603 | 22 | 92 | 3.2 | 11.3 | 0.00 | 0.00 | 0.00 | 32 | 1012.4 |
| 20260506190059 | 22 | 131 | 3.2 | 14.5 | 0.00 | 0.00 | 0.00 | 32 | 1012.1 |
| 20260506184556 | 22 | 171 | 3.2 | 19.3 | 0.00 | 0.00 | 0.00 | 35 | 1012.4 |
| 20260506183051 | 21 | 139 | 4.8 | 19.3 | 0.00 | 0.00 | 0.00 | 39 | 1012.1 |
| 20260506181550 | 20 | 152 | 4.8 | 16.1 | 0.00 | 0.00 | 0.00 | 42 | 1012.4 |
| 20260506180046 | 20 | 149 | 4.8 | 16.1 | 0.00 | 0.00 | 0.00 | 44 | 1012.4 |
| 20260506174543 | 19 | 125 | 3.2 | 16.1 | 0.00 | 0.00 | 0.00 | 47 | 1012.4 |
| 20260506173039 | 18 | 144 | 3.2 | 12.9 | 0.00 | 0.00 | 0.00 | 47 | 1012.4 |
| 20260506171536 | 18 | 158 | 1.6 | 9.7 | 0.00 | 0.00 | 0.00 | 48 | 1012.9 |
| 20260506170035 | 17 | 180 | 1.6 | 9.7 | 0.00 | 0.00 | 0.00 | 49 | 1012.9 |
| 20260506164532 | 17 | 179 | 1.6 | 14.5 | 0.00 | 0.00 | 0.00 | 51 | 1012.9 |
| 20260506163027 | 16 | 140 | 3.2 | 11.3 | 0.00 | 0.00 | 0.00 | 53 | 1013.2 |
| 20260506161524 | 14 | 137 | 4.8 | 9.7 | 0.00 | 0.00 | 0.00 | 55 | 1013.5 |
| 20260506155116 | 13 | 129 | 4.8 | 11.3 | 0.00 | 0.00 | 0.00 | 56 | 1013.5 |
| 20260506153016 | 13 | 129 | 4.8 | 11.3 | 0.00 | 0.00 | 0.00 | 56 | 1013.5 |
| 20260506151514 | 13 | 143 | 1.6 | 8.0 | 0.00 | 0.00 | 0.00 | 57 | 1013.5 |
| 20260506150011 | 12 | 193 | 0.0 | 3.2 | 0.00 | 0.00 | 0.00 | 59 | 1013.5 |
| 20260506144507 | 12 | 193 | 0.0 | 1.6 | 0.00 | 0.00 | 0.00 | 60 | 1013.5 |
| 20260506143006 | 11 | 235 | 0.0 | 4.8 | 0.00 | 0.00 | 0.00 | 60 | 1013.5 |
| 20260506141505 | 11 | 235 | 0.0 | 4.8 | 0.00 | 0.00 | 0.00 | 60 | 1013.5 |
| 20260506140003 | 10 | 217 | 0.0 | 6.4 | 0.00 | 0.00 | 0.00 | 61 | 1013.5 |
| 20260506134458 | 10 | 187 | 0.0 | 0.0 | 0.00 | 0.00 | 0.00 | 60 | 1013.2 |
| 20260506132954 | 11 | 187 | 0.0 | 6.4 | 0.00 | 0.00 | 0.00 | 59 | 1013.2 |
| 20260506131450 | 10 | 187 | 0.0 | 0.0 | 0.00 | 0.00 | 0.00 | 59 | 1013.2 |
| 20260506125948 | 11 | 187 | 0.0 | 3.2 | 0.00 | 0.00 | 0.00 | 58 | 1013.2 |
| 20260506124447 | 11 | 187 | 0.0 | 3.2 | 0.00 | 0.00 | 0.00 | 58 | 1013.2 |
| 20260506122946 | 11 | 187 | 0.0 | 3.2 | 0.00 | 0.00 | 0.00 | 57 | 1013.2 |
| 20260506121443 | 11 | 187 | 0.0 | 0.0 | 0.00 | 0.00 | 0.00 | 57 | 1012.9 |
| 20260506115941 | 11 | 187 | 0.0 | 0.0 | 0.00 | 0.00 | 0.00 | 57 | 1012.9 |
| 20260506114440 | 11 | 187 | 0.0 | 0.0 | 0.00 | 0.00 | 0.00 | 57 | 1012.9 |
| 20260506112937 | 11 | 187 | 0.0 | 0.0 | 0.00 | 0.00 | 0.00 | 56 | 1012.9 |
| 20260506111436 | 11 | 187 | 0.0 | 1.6 | 0.00 | 0.00 | 0.00 | 55 | 1012.9 |
| 20260506105933 | 11 | 187 | 0.0 | 0.0 | 0.00 | 0.00 | 0.00 | 55 | 1012.4 |
| 20260506104431 | 12 | 187 | 0.0 | 0.0 | 0.00 | 0.00 | 0.00 | 55 | 1012.4 |
| 20260506102928 | 11 | 194 | 0.0 | 4.8 | 0.00 | 0.00 | 0.00 | 56 | 1012.4 |
| 20260506101426 | 11 | 0 | 0.0 | 3.2 | 0.00 | 0.00 | 0.00 | 56 | 1012.4 |
| 20260506095925 | 12 | 0 | 1.6 | 4.8 | 0.00 | 0.00 | 0.00 | 54 | 1012.4 |
| 20260506094424 | 12 | 246 | 0.0 | 8.0 | 0.00 | 0.00 | 0.00 | 53 | 1012.4 |
| 20260506092922 | 12 | 216 | 0.0 | 6.4 | 0.00 | 0.00 | 0.00 | 53 | 1012.4 |
| 20260506091420 | 12 | 216 | 0.0 | 4.8 | 0.00 | 0.00 | 0.00 | 53 | 1012.4 |
| 20260506085917 | 12 | 216 | 0.0 | 0.0 | 0.00 | 0.00 | 0.00 | 56 | 1012.4 |
| 20260506084413 | 12 | 216 | 0.0 | 3.2 | 0.00 | 0.00 | 0.00 | 56 | 1012.4 |
| 20260506082910 | 12 | 216 | 0.0 | 3.2 | 0.00 | 0.00 | 0.00 | 57 | 1012.9 |
| 20260506081407 | 12 | 216 | 0.0 | 8.0 | 0.00 | 0.00 | 0.00 | 58 | 1012.4 |
| 20260506072859 | 12 | 216 | 0.0 | 0.0 | 0.00 | 0.00 | 0.00 | 58 | 1012.4 |
| 20260506071358 | 12 | 216 | 0.0 | 0.0 | 0.00 | 0.00 | 0.00 | 54 | 1012.4 |
| 20260506061344 | 13 | 216 | 0.0 | 0.0 | 0.00 | 0.00 | 0.00 | 51 | 1012.1 |
| 20260506051336 | 14 | 231 | 0.0 | 9.7 | 0.00 | 0.00 | 0.00 | 48 | 1012.1 |
| 20260506044330 | 15 | 253 | 0.0 | 6.4 | 0.00 | 0.00 | 0.00 | 45 | 1012.1 |
| 20260506042829 | 15 | 244 | 1.6 | 9.7 | 0.00 | 0.00 | 0.00 | 45 | 1012.1 |
| 20260506041328 | 15 | 251 | 1.6 | 11.3 | 0.00 | 0.00 | 0.00 | 44 | 1012.1 |
| 20260506035825 | 15 | 183 | 0.0 | 6.4 | 0.00 | 0.00 | 0.00 | 44 | 1011.6 |
| 20260506034322 | 15 | 193 | 0.0 | 6.4 | 0.00 | 0.00 | 0.00 | 42 | 1011.6 |
| 20260506032819 | 16 | 236 | 0.0 | 6.4 | 0.00 | 0.00 | 0.00 | 41 | 1011.3 |
| 20260506031316 | 17 | 239 | 0.0 | 8.0 | 0.00 | 0.00 | 0.00 | 39 | 1011.3 |
| 20260506025813 | 17 | 252 | 0.0 | 9.7 | 0.00 | 0.00 | 0.00 | 37 | 1010.9 |
| 20260506024309 | 18 | 260 | 1.6 | 14.5 | 0.00 | 0.00 | 0.00 | 36 | 1010.9 |
| 20260506022805 | 18 | 209 | 0.0 | 11.3 | 0.00 | 0.00 | 0.00 | 35 | 1010.9 |
| 20260506021303 | 20 | 249 | 1.6 | 14.5 | 0.00 | 0.00 | 0.00 | 34 | 1010.9 |
| 20260506015801 | 20 | 246 | 1.6 | 9.7 | 0.00 | 0.00 | 0.00 | 33 | 1010.5 |
| 20260506014257 | 20 | 227 | 3.2 | 17.7 | 0.00 | 0.00 | 0.00 | 32 | 1010.5 |
| 20260506012753 | 21 | 204 | 1.6 | 9.7 | 0.00 | 0.00 | 0.00 | 32 | 1010.1 |
| 20260506011249 | 21 | 185 | 1.6 | 17.7 | 0.00 | 0.00 | 0.00 | 31 | 1009.7 |
| 20260506005748 | 21 | 54 | 1.6 | 11.3 | 0.00 | 0.00 | 0.00 | 31 | 1009.7 |
| 20260506004244 | 22 | 130 | 3.2 | 14.5 | 0.00 | 0.00 | 0.00 | 31 | 1009.7 |
| 20260506002744 | 22 | 90 | 3.2 | 9.7 | 0.00 | 0.00 | 0.00 | 33 | 1009.7 |
| 20260506001240 | 22 | 145 | 6.4 | 16.1 | 0.00 | 0.00 | 0.00 | 33 | 1009.7 |
| 20260505235737 | 24 | 212 | 1.6 | 11.3 | 0.00 | 0.00 | 0.00 | 30 | 1009.7 |
| 20260505234235 | 23 | 102 | 1.6 | 8.0 | 0.00 | 0.00 | 0.00 | 31 | 1009.7 |
| 20260505232732 | 23 | 112 | 0.0 | 6.4 | 0.00 | 0.00 | 0.00 | 31 | 1009.7 |
| 20260505231231 | 23 | 120 | 3.2 | 14.5 | 0.00 | 0.00 | 0.00 | 31 | 1009.7 |
| 20260505225727 | 23 | 25 | 1.6 | 8.0 | 0.00 | 0.00 | 0.00 | 32 | 1009.7 |
| 20260505224223 | 23 | 114 | 6.4 | 16.1 | 0.00 | 0.00 | 0.00 | 33 | 1010.1 |
| 20260505222719 | 23 | 123 | 3.2 | 9.7 | 0.00 | 0.00 | 0.00 | 34 | 1010.1 |